Find Starlink 32583

NORAD ID: 61955 Int'l Des: 2024-209 Owner: SPXS Country: US Constellation: starlink operational
LEOCIRCULAR

Current View

Loading 3D Globe...

About Starlink 32583

Starlink 32583 (NORAD 61955) is a starlink constellation satellite (v2 mini) launched Nov 14, 2024 by SPXS of US. It operates in LEO, CIRCULAR orbit with a mass of 730.00 kg.

Upcoming Passes

Passes for default location (London). Set your location on the main map for personalized predictions.

Altitude History

Loading altitude history...

Two-Line Element Set

1 61955U 24209S 26236.83365478 .00020059 00000-0 60295-3 0 9997
2 61955 53.1585 72.6268 0001356 92.9889 267.1269 15.34413935100772
Epoch: Aug 24, 2026 • Age: 22 hours

Current Status

Altitude 462.5 km
Apogee / Perigee N/A
Velocity 7.64 km/s
Sub-Earth Point 14.60°N, 164.05°W
Launch Date Nov 14, 2024
Age 1.7 years
Type internet

Technical Details

Classification Payload
Mass 730.00 kg
Dry Mass 700.00 kg
Total Mass 730.00 kg
Length 0.30 m
Diameter 4.10 m
Span 29.00 m
Shape Box + pan
Manufacturer SPXS
Bus Type Starlink V2M
Phase Status In Orbit
Owner/State SPXS/US

Most Searched